Location: Newark
(14.1000°N, 87.2167°W)
Time: 02:50:18
(UTC+00:00)

Envisat - Visible Passes

Search period start: 18 September 2021 00:00
Search period end: 28 September 2021 00:00
Orbit: 764 x 766 km, 98.2° (Epoch: 17 September)

Date Brightness Start Highest point End Pass type
(mag) Time Alt. Az. Time Alt. Az. Time Alt. Az.
18 Sep 4.7 10:09:32 10° NE 10:14:03 33° E 10:18:33 10° SSE visible
19 Sep 6.1 09:35:34 10° E 09:37:11 11° E 09:38:47 10° ESE visible
19 Sep 3.4 11:11:20 10° N 11:16:05 43° WNW 11:20:52 10° SSW visible
20 Sep 3.3 10:34:20 10° NNE 10:39:22 68° ESE 10:44:23 10° S visible
21 Sep 5.3 09:58:29 10° NE 10:02:33 24° E 10:06:35 10° SSE visible
22 Sep 3.0 10:59:40 10° N 11:04:38 59° WNW 11:09:36 10° SSW visible
23 Sep 3.9 10:22:59 10° NNE 10:27:52 49° E 10:32:45 10° S visible
24 Sep 5.7 09:47:41 10° ENE 09:51:02 18° E 09:54:22 10° SE visible
25 Sep 2.9 10:48:05 10° N 10:53:09 80° WNW 10:58:13 10° SSW visible
26 Sep 4.6 10:11:45 10° NE 10:16:22 36° E 10:20:58 10° SSE visible
27 Sep 6.0 09:37:18 10° ENE 09:39:30 13° E 09:41:42 10° SE visible
27 Sep 3.5 11:13:43 10° N 11:18:24 39° WNW 11:23:05 10° SW visible
